Date,TemperatureHighF,TemperatureAvgF,TemperatureLowF,DewpointHighF,DewpointAvgF,DewpointLowF,HumidityHigh,HumidityAvg,HumidityLow,PressureMaxIn,PressureMinIn,WindSpeedMaxMPH,WindSpeedAvgMPH,GustSpeedMaxMPH,PrecipitationSumIn
2013-2-1,37,23,16,30,15,8,94,71,54,30.37,29.92,0,0,0,0.00
2013-2-2,39,28,18,31,18,4,97,67,42,30.37,30.04,0,0,0,0.00
2013-2-3,41,31,25,34,27,21,96,84,62,30.04,29.90,0,0,0,0.05
2013-2-4,47,35,23,28,22,17,87,63,39,30.13,29.97,0,0,0,0.00
2013-2-5,51,44,38,39,30,22,72,59,49,29.98,29.89,0,0,0,0.00
2013-2-6,54,45,36,37,28,21,83,55,29,30.19,29.96,0,0,0,0.00
2013-2-7,45,40,37,39,31,20,97,72,36,30.18,29.94,0,0,0,0.38
2013-2-8,47,38,30,42,36,27,100,92,68,30.12,29.89,0,0,0,0.02
2013-2-9,52,38,25,28,23,16,94,62,27,30.33,30.08,0,0,0,0.00
2013-2-10,47,42,37,44,27,20,99,60,39,30.32,30.07,0,0,0,0.22
2013-2-11,53,47,43,51,42,24,100,85,44,30.11,29.97,0,0,0,0.02
2013-2-12,48,41,35,36,28,20,94,62,37,30.09,29.86,0,0,0,0.18
2013-2-13,45,37,32,43,36,30,99,95,80,29.88,29.62,0,0,0,0.14
2013-2-14,50,38,29,32,28,22,94,69,39,30.04,29.88,0,0,0,0.00
2013-2-15,54,40,30,37,31,28,96,72,38,30.07,29.92,0,0,0,0.00
2013-2-16,32,27,20,28,22,13,96,84,56,30.00,29.84,0,0,0,0.01
2013-2-17,32,24,17,15,11,9,77,60,42,30.29,30.00,0,0,0,0.00
2013-2-18,48,36,24,26,19,10,59,50,39,30.37,30.13,0,0,0,0.00
2013-2-19,51,38,30,42,28,15,97,66,40,30.15,29.85,0,0,0,0.01
2013-2-20,42,32,26,18,10,-1,63,42,19,30.15,30.01,0,0,0,0.00
2013-2-21,58,40,26,34,15,4,94,41,12,30.22,30.06,0,0,0,0.22
2013-2-22,40,36,32,40,35,30,99,95,85,30.21,30.05,0,0,0,0.24
2013-2-23,52,46,37,50,43,36,100,92,64,30.07,29.80,0,0,0,0.20
2013-2-24,51,42,35,40,30,22,95,65,34,30.02,29.81,0,0,0,0.00
2013-2-25,43,37,31,29,25,22,89,61,48,30.07,29.94,0,0,0,0.00
2013-2-26,38,33,29,38,32,28,99,97,89,29.95,29.63,0,0,0,0.42
2013-2-27,51,40,33,36,33,30,97,79,53,29.79,29.64,0,0,0,0.00
2013-2-28,37,31,28,33,27,24,96,85,72,29.91,29.68,0,0,0,0.01